Weather reports worldwide

Advertisment
Magilligan, United Kingdom (3907): temperature & dewpoint: 24.10.2020 00:00:00 - 30.10.2020 00:00:00 (GMT)Magilligan, United Kingdom (3907): temperature -20cm & temperature -100cm: 24.10.2020 00:00:00 - 30.10.2020 00:00:00 (GMT)Magilligan, United Kingdom (3907): wind speed & gusts: 24.10.2020 00:00:00 - 30.10.2020 00:00:00 (GMT)Magilligan, United Kingdom (3907): wind direction: 24.10.2020 00:00:00 - 30.10.2020 00:00:00 (GMT)Magilligan, United Kingdom (3907): reduced air pressure: 24.10.2020 00:00:00 - 30.10.2020 00:00:00 (GMT)Magilligan, United Kingdom (3907): visibility: 24.10.2020 00:00:00 - 30.10.2020 00:00:00 (GMT)Magilligan, United Kingdom (3907): sunshine duration: 24.10.2020 00:00:00 - 30.10.2020 00:00:00 (GMT)Magilligan, United Kingdom (3907): precipitation: 24.10.2020 00:00:00 - 30.10.2020 00:00:00 (GMT)
Date & Time tt [°C] td [°C] tt -20cm [°C] tt -100cm [°C] ff [km/h] ff [kn] fx [km/h] fx [kn] dd ppp [hPa] vv [km] sd [min] rr [mm]
30.10.2020 00:00:00 12,6 10,4 - - 48 26 68 37 SW 997,3 23 - 0,0
29.10.2020 23:00:00 14,3 10,9 - - 52 28 72 39 SW 995,3 26 0 0,0
29.10.2020 22:00:00 14,8 13,0 - - 34 18 50 27 SSW 993,7 50 0 0,0
29.10.2020 21:00:00 14,9 12,9 - - 29 16 54 29 SSW 993,2 50 0 0,0
29.10.2020 20:00:00 15,0 12,8 - - 37 20 59 32 SSW 993,3 50 0 0,0
29.10.2020 19:00:00 14,9 12,8 - - 37 20 54 29 SSW 993,3 50 0 0,0
29.10.2020 18:00:00 14,6 12,7 - - 28 15 48 26 SSW 993,2 45 0 0,0
29.10.2020 17:00:00 14,8 13,0 - - 31 17 - - SSW 993,5 45 0 0,0
29.10.2020 16:00:00 15,1 13,2 - - 31 17 48 26 SSW 993,6 50 0 0,0
29.10.2020 15:00:00 14,6 13,3 - - 34 18 50 27 SSW 993,9 30 0 0,0
29.10.2020 14:00:00 14,3 13,3 - - 31 17 - - SSW 993,8 5 0 0,6
29.10.2020 13:00:00 14,1 12,9 - - 28 15 - - SSW 994,0 18 0 0,4
29.10.2020 12:00:00 13,2 12,3 - - 24 13 - - SSW 994,3 20 0 0,2
29.10.2020 11:00:00 11,9 11,2 - - 18 10 - - SSW 994,8 14 0 0,4
29.10.2020 10:00:00 11,0 9,8 - - 26 14 - - S 995,0 15 0 0,8
29.10.2020 09:00:00 10,4 8,7 9,9 11,7 31 17 48 26 S 995,5 19 0 0,4
29.10.2020 08:00:00 10,1 8,2 - - 28 15 46 25 S 996,3 23 0 1,2
29.10.2020 07:00:00 8,4 7,2 - - 21 11 - - SSE 997,6 12 0 1,6
29.10.2020 06:00:00 8,2 6,7 - - 21 11 - - S 998,9 13 0 0,4
29.10.2020 05:00:00 7,5 5,9 - - 18 10 - - S 1000,0 11 0 0,0
29.10.2020 04:00:00 7,0 4,9 - - 15 8 - - SSW 1000,2 17 0 0,0
29.10.2020 03:00:00 6,7 4,5 - - 18 10 - - SSW 1000,5 16 0 0,0
29.10.2020 02:00:00 7,0 5,0 - - 22 12 - - SSW 1000,2 14 0 0,0
29.10.2020 01:00:00 6,8 5,5 - - 22 12 - - SSW 1000,0 16 0 0,0
29.10.2020 00:00:00 6,5 4,6 - - 24 13 - - SSW 999,2 20 - 0,2
28.10.2020 23:00:00 7,5 5,7 - - 28 15 - - SW 998,2 15 0 0,0
28.10.2020 22:00:00 7,6 6,4 - - 29 16 46 25 SW 997,0 11 0 0,6
28.10.2020 21:00:00 8,3 6,7 - - 31 17 50 27 SW 996,1 17 0 0,0
28.10.2020 20:00:00 7,8 6,4 - - 31 17 46 25 SW 994,8 17 0 0,4
28.10.2020 19:00:00 7,9 6,2 - - 34 18 48 26 SW 993,9 18 0 0,2
28.10.2020 18:00:00 7,3 6,1 - - 29 16 - - SSW 992,9 7 0 2,2
28.10.2020 17:00:00 7,5 6,1 - - 35 19 52 28 SW 992,2 11 0 0,6
28.10.2020 16:00:00 8,1 5,3 - - 22 12 - - SSW 991,1 22 18 0,0
28.10.2020 15:00:00 8,6 6,2 - - 21 11 50 27 SW 991,1 30 36 0,0
28.10.2020 14:00:00 8,1 5,5 - - 15 8 - - SSW 990,8 45 12 0,0
28.10.2020 13:00:00 7,9 5,2 - - 37 20 52 28 WSW 990,5 28 0 0,0
28.10.2020 12:00:00 9,0 5,6 - - 31 17 57 31 SSW 989,8 22 6 0,0
28.10.2020 11:00:00 9,1 5,1 - - 41 22 57 31 SW 988,9 24 24 0,0
28.10.2020 10:00:00 8,0 5,0 - - 34 18 48 26 SSW 988,4 27 0 0,0
28.10.2020 09:00:00 7,5 4,7 10,2 11,7 31 17 - - SSW 987,9 35 0 0,0
28.10.2020 08:00:00 7,2 4,5 - - 29 16 46 25 SSW 987,6 35 0 0,0
28.10.2020 07:00:00 7,3 4,7 - - 35 19 48 26 SSW 986,6 40 0 0,0
28.10.2020 06:00:00 7,4 5,0 - - 29 16 - - SSW 986,6 29 0 0,0
28.10.2020 05:00:00 7,5 5,0 - - 28 15 48 26 SSW 986,5 30 0 0,0
28.10.2020 04:00:00 7,7 5,2 - - 29 16 46 25 SSW 986,1 30 0 0,0
28.10.2020 03:00:00 7,2 5,1 - - 22 12 - - SSW 986,3 28 0 0,0
28.10.2020 02:00:00 7,2 4,8 - - 22 12 - - S 986,4 22 0 0,0
28.10.2020 01:00:00 7,0 4,7 - - 28 15 - - SSW 985,8 24 0 0,0
28.10.2020 00:00:00 7,2 4,8 - - 28 15 - - SSW 985,9 27 - 0,0
27.10.2020 23:00:00 6,7 4,6 - - 28 15 - - SSW 985,8 50 0 0,0
27.10.2020 22:00:00 6,8 4,5 - - 26 14 - - SSW 985,6 35 0 0,0
27.10.2020 21:00:00 6,9 4,4 - - 24 13 - - SSW 985,9 30 0 0,0
27.10.2020 20:00:00 7,2 3,9 - - 24 13 - - S 986,0 30 0 0,0
27.10.2020 19:00:00 7,2 4,1 - - 22 12 - - SSW 986,0 23 0 0,0
27.10.2020 18:00:00 6,5 3,4 - - 15 8 - - S 986,0 26 0 0,0
27.10.2020 17:00:00 8,7 5,3 - - 24 13 - - SW 986,0 - 6 0,0
27.10.2020 16:00:00 9,6 5,9 - - 21 11 - - SW 985,6 - 60 0,0
27.10.2020 15:00:00 10,4 6,2 - - 34 18 - - WSW 985,5 - 54 0,0
27.10.2020 14:00:00 9,7 5,2 - - 29 16 48 26 SW 985,4 - 24 0,2
27.10.2020 13:00:00 10,0 7,9 - - 22 12 - - SW 985,1 - 0 0,6
27.10.2020 12:00:00 9,7 8,0 - - 24 13 - - SW 985,1 - 0 0,0
27.10.2020 11:00:00 9,6 9,0 - - 28 15 - - SW 984,8 - 0 0,8
27.10.2020 10:00:00 9,6 8,7 - - 28 15 - - S 984,4 - 0 0,6
27.10.2020 09:00:00 10,0 8,0 10,4 11,7 31 17 52 28 S 984,6 19 0 0,2
27.10.2020 08:00:00 9,6 7,3 - - 37 20 57 31 S 985,4 7 0 0,0
27.10.2020 07:00:00 8,9 6,6 - - 26 14 - - S 986,5 50 0 0,0
27.10.2020 06:00:00 8,0 5,7 - - 21 11 - - S 987,9 27 0 0,0
27.10.2020 05:00:00 8,0 4,6 - - 22 12 - - S 989,3 30 0 0,0
27.10.2020 04:00:00 8,1 4,6 - - 13 7 - - S 990,5 40 0 0,0
27.10.2020 03:00:00 7,9 4,8 - - 16 9 - - S 991,8 45 0 0,0
27.10.2020 02:00:00 6,7 5,4 - - 13 7 - - SSW 993,1 35 0 0,0
27.10.2020 01:00:00 6,0 5,1 - - 11 6 - - SSW 993,9 30 0 0,0
27.10.2020 00:00:00 6,0 5,1 - - 13 7 - - SSW 995,0 40 - 0,0
26.10.2020 23:00:00 6,4 5,5 - - 13 7 - - SSW 995,6 24 0 0,0
26.10.2020 22:00:00 7,4 6,3 - - 18 10 - - SW 996,0 20 0 0,0
26.10.2020 21:00:00 8,1 7,2 - - 16 9 - - SW 996,0 19 0 0,0
26.10.2020 20:00:00 8,5 7,0 - - 21 11 - - WSW 996,0 23 0 0,0
26.10.2020 19:00:00 8,7 6,7 - - 22 12 - - W 996,0 23 0 0,0
26.10.2020 18:00:00 9,3 6,6 - - 24 13 - - W 995,5 26 0 0,2
26.10.2020 17:00:00 9,7 6,7 - - 21 11 - - W 995,4 19 0 0,0
26.10.2020 16:00:00 10,6 7,3 - - 22 12 - - W 995,1 20 0 0,0
26.10.2020 15:00:00 9,1 6,9 - - 34 18 50 27 WNW 994,7 8 6 0,0
26.10.2020 14:00:00 9,7 6,7 - - 31 17 54 29 WNW 994,6 35 18 0,0
26.10.2020 13:00:00 10,6 7,8 - - 29 16 57 31 WNW 994,1 24 6 0,0
26.10.2020 12:00:00 10,3 8,3 - - 31 17 72 39 W 993,4 4,2 6 0,4
26.10.2020 11:00:00 10,4 6,9 - - 35 19 55 30 WNW 992,8 25 0 0,0
26.10.2020 10:00:00 10,2 7,4 - - 31 17 50 27 WNW 991,9 17 0 0,0
26.10.2020 09:00:00 9,5 8,0 10,7 11,9 15 8 - - WNW 991,0 11 0 0,2
26.10.2020 08:00:00 9,7 7,3 - - 35 19 50 27 WNW 990,2 19 0 0,2
26.10.2020 07:00:00 9,8 6,9 - - 31 17 50 27 WNW 989,0 26 0 0,0
26.10.2020 06:00:00 10,0 7,3 - - 37 20 54 29 WNW 987,9 21 0 0,0
26.10.2020 05:00:00 9,9 8,0 - - 35 19 68 37 WNW 986,6 14 0 0,8
26.10.2020 04:00:00 10,1 8,1 - - 41 22 57 31 WNW 985,5 7 0 0,0
26.10.2020 03:00:00 9,9 8,5 - - 28 15 - - W 984,6 23 0 0,4
26.10.2020 02:00:00 9,5 8,6 - - 22 12 - - WSW 983,8 29 0 0,8
26.10.2020 01:00:00 8,8 8,2 - - 18 10 - - SSW 983,1 21 0 1,6
26.10.2020 00:00:00 8,7 7,8 - - 16 9 - - SSW 982,6 17 - 0,4
25.10.2020 23:00:00 8,9 7,6 - - 26 14 - - SSW 982,3 35 0 0,0
25.10.2020 22:00:00 8,7 7,3 - - 31 17 48 26 SSW 982,2 35 0 0,2
25.10.2020 21:00:00 8,6 7,2 - - 34 18 50 27 SSW 981,9 9 0 0,2
25.10.2020 20:00:00 8,4 7,1 - - 28 15 52 28 SSW 982,0 9 0 0,4
25.10.2020 19:00:00 8,8 7,2 - - 35 19 55 30 SSW 982,1 16 0 0,6
25.10.2020 18:00:00 9,0 6,6 - - 31 17 54 29 SSW 982,1 22 0 0,0
25.10.2020 17:00:00 9,7 6,5 - - 34 18 54 29 SSW 982,0 35 0 0,0
25.10.2020 16:00:00 10,2 6,4 - - 39 21 61 33 SSW 981,8 40 0 0,0
25.10.2020 15:00:00 10,8 6,0 - - 37 20 59 32 SSW 981,7 30 0 0,0
25.10.2020 14:00:00 10,6 6,3 - - 44 24 61 33 SSW 981,8 35 0 0,0
25.10.2020 13:00:00 10,5 5,6 - - 41 22 63 34 SSW 981,5 40 0 0,0
25.10.2020 12:00:00 9,8 5,7 - - 39 21 57 31 SSW 981,8 29 0 0,0
25.10.2020 11:00:00 9,7 5,5 - - 39 21 57 31 SSW 981,5 35 0 0,0
25.10.2020 10:00:00 8,7 4,7 - - 44 24 65 35 SSW 980,9 29 6 0,0
25.10.2020 09:00:00 7,8 4,7 10,7 12,0 31 17 52 28 SSW 981,1 40 6 0,0
25.10.2020 08:00:00 7,1 4,2 - - 28 15 46 25 SSW 981,0 45 0 0,0
25.10.2020 07:00:00 7,3 4,5 - - 29 16 - - SSW 980,5 50 0 0,0
25.10.2020 06:00:00 7,6 5,0 - - 28 15 48 26 SSW 979,9 45 0 0,0
25.10.2020 05:00:00 7,5 4,7 - - 31 17 50 27 S 979,4 50 0 0,0
25.10.2020 04:00:00 7,5 4,6 - - 35 19 50 27 S 979,3 40 0 0,0
25.10.2020 03:00:00 7,4 4,3 - - 34 18 52 28 S 979,7 45 0 0,0
25.10.2020 02:00:00 7,4 4,1 - - 37 20 55 30 S 980,3 50 0 0,0
25.10.2020 01:00:00 7,3 4,0 - - 35 19 50 27 SSW 980,4 45 0 0,0
25.10.2020 00:00:00 - - - - - - - - - - - - -
24.10.2020 23:00:00 7,3 4,2 - - 35 19 50 27 S 981,4 30 0 0,0
24.10.2020 22:00:00 7,2 3,9 - - 29 16 54 29 S 982,0 35 0 0,0
24.10.2020 21:00:00 7,1 3,9 - - 35 19 52 28 S 982,2 35 0 0,0
24.10.2020 20:00:00 7,2 3,7 - - 31 17 50 27 S 982,7 40 0 0,0
24.10.2020 19:00:00 7,6 3,8 - - 29 16 48 26 S 983,3 45 0 0,0
24.10.2020 18:00:00 8,1 4,1 - - 29 16 - - S 983,3 35 0 0,0
24.10.2020 17:00:00 9,0 4,8 - - 24 13 - - S 983,5 26 18 0,0
24.10.2020 16:00:00 10,1 5,0 - - 26 14 48 26 SSW 984,3 30 36 0,0
24.10.2020 15:00:00 10,7 5,0 - - 29 16 52 28 SSW 984,5 28 54 0,0
24.10.2020 14:00:00 11,2 4,9 - - 37 20 59 32 SSW 985,3 25 60 0,0
24.10.2020 13:00:00 11,3 5,0 - - 42 23 57 31 SSW 985,7 27 54 0,0
24.10.2020 12:00:00 10,9 4,5 - - 39 21 52 28 SSW 986,3 20 60 0,0
24.10.2020 11:00:00 10,3 5,5 - - 35 19 50 27 SSW 986,2 23 60 0,0
24.10.2020 10:00:00 9,7 5,1 - - 35 19 48 26 SSW 986,2 19 60 0,0
24.10.2020 09:00:00 9,0 5,6 11,0 12,2 34 18 52 28 SSW 986,1 16 6 0,0
24.10.2020 08:00:00 8,4 5,7 - - 26 14 46 25 SSW 985,7 19 0 0,0
24.10.2020 07:00:00 9,1 6,4 - - 34 18 46 25 SW 985,4 22 0 0,0
24.10.2020 06:00:00 8,8 6,3 - - 28 15 65 35 SSW 985,1 45 0 0,2
24.10.2020 05:00:00 9,3 7,1 - - 52 28 87 47 SW 985,3 11 0 0,4
24.10.2020 04:00:00 11,5 9,4 - - 39 21 68 37 S 984,0 40 0 0,0
24.10.2020 03:00:00 10,9 8,5 - - 46 25 76 41 S 984,9 35 0 0,0
24.10.2020 02:00:00 10,3 7,6 - - 52 28 80 43 S 986,3 30 0 0,0
24.10.2020 01:00:00 9,6 7,1 - - 54 29 87 47 S 987,9 23 0 0,0
24.10.2020 00:00:00 8,6 6,5 - - 44 24 68 37 S 990,7 22 - 0,4

tt = temperature
td = dewpoint
tt -20cm = temperature -20cm
tt -100cm = temperature -100cm
ff = wind speed
fx = gusts
dd = wind direction
ppp = reduced air pressure
vv = visibility
sd = sunshine duration
rr = precipitation

Next stations